Other Surface Observations
Issued by NWS Charleston, SC

Current Version | Previous Version | Text Only | Print | Product List | Glossary On
Versions: 1 2 3 4 5 6 7 8 9 10 11 12 13 14 15 16 17 18 19 20 21 22 23 24 25 26 27 28 29 30 31 32 33 34 35 36 37 38 39 40 41 42 43 44 45 46 47 48 49 50
000
SXUS52 KCHS 250810
OSOCHS

Marine Observations
National Weather Service Charleston SC
400 AM EDT SUN SEP 25 2022

...Downtown Charleston and Harbor...

CITY           SKY/WX    TMP DP  RH WIND       PRES   REMARKS
Waterfront Prk   N/A     72  62  71 CALM      29.85F

...Lake Moultrie...

CITY           SKY/WX    TMP DP  RH WIND       PRES   REMARKS
Pinopolis        N/A     70  63  78 SW5         N/A

...Lake and Supplemental Coastal Observations...

STATION/POSITION TIME  TEMP    WIND        PRES    WAVE   SWELL
                       AIR SEA DIR/SP/G            HT/PER HT/PER/DIR
                 (UTC) (F)     (DEG/KT/KT) (MB)    (FT/S) (FT/S/D)
Chrlstn Harbor   0724   72 80  280/  2/  3 1014.3
Fort Pulaski     0724   71 80  360/  4/  5 1015.9
Sapelo Island    0700   68     120/  2       N/A
Winyah Bay       0645   62        CALM     1016.0
Lake Murray      0720   71     230/ 12/ 17   N/A
ACE Basin NERRS  NOT AVBL


...C-MAN and Buoy Observations...

STATION/POSITION TIME  TEMP    WIND        PRES    WAVE   SWELL
                       AIR SEA DIR/SP/G            HT/PER HT/PER/DIR
                 (UTC) (F)     (DEG/KT/KT) (MB)    (FT/S) (FT/S/D)
Buoy 41004       0750   77 82  220/  4/  6 1015.5F   3/10   3/ 90/10
Buoy 41008       0750   79 81  160/  6/  8 1014.7F   3/ 8   3/ 90/ 8
Folly Beach CMAN 0700   70     320/  4/  4 1016.2F
Pritchards Islan NOT AVBL
Chas Pilot Buoy  0708   78 81  220/  6/ 10 1015.5F
Chas Pilot Wave  NOT AVBL
Capers NS Buoy   0708   77 80  260/  8/ 14 1015.4F
Capers NS Wave   NOT AVBL
Fripp NS Buoy    NOT AVBL
5E St. Marys GA  0730   79 81                N/A     3/ 9   2/ 90/10


STATION/POSITION TIME  TEMP    WIND        PRES    WAVE   SWELL
                       AIR SEA DIR/SP/G            HT/PER HT/PER/DIR
                 (UTC) (F)     (DEG/KT/KT) (MB)    (FT/S) (FT/S/D)
Frying Pan Buoy  0750   77 83  250/ 14/ 17 1015.2F   3/ 9   2/ 80/ 9
Buoy 41025       0750      81  250/ 14/ 17 1014.4F
Cape Lookout NC  0700   74     220/ 10/ 13 1015.5F
Buoy 41002       0750   77 81  140/  4/  8 1014.5F   5/ 9   5/ 20/ 9
Buoy 41010       0750   81 85   70/ 12/ 14 1013.8F   4/ 9   3/ 50/ 9
St Augustine FL  0800   80 81  130/  9/ 10 1014.3F

$$



USA.gov is the U.S. government's official web portal to all federal, state and local government web resources and services.